OBJECT H, 61234

Orbit data source: Space-Track

You're viewing an Uncataloged Satellite

Recently launched and/or uncataloged satellites may have evolving metadata. Metadata may include but not limited to: Owner, Maufacturer, Bus, Motor, and Mission.

OBJECT H, 61234 is a Chinese satellite in SSO that was launched on Tue, 24 Sep 2024 UTC via a JIELONG-3 launch vehicle from the Yellow Sea Launch Area, China (YSLA). Unknown objects in Earth's orbit typically refer to objects detected orbiting the Earth but have not yet been identified or cataloged. These objects could be anything from previously untracked satellites, spent rocket stages, debris from satellite collisions, or even natural meteoroids temporarily captured by Earth's gravity.

Loading next visibility...
OBJECT H details
Identifier
61234, 2024-173H
Orbit
SSO
Last TLE update8 hours ago
Origin
Flag of CNTLCJ/ZZQY (CN / PRC)
ManufacturerZZQY
MissionOperational spacecraft
Bus & MotorUnknown
Mass~70 kg wet, ~70 kg dry
Launch date (UTC)
2024-09-24 (3 months ago)
Launch vehicle
JIELONG-3
Launch site
Yellow Sea Launch Area, China (YSLA)
Object typeUnknown
Shape & HBRUnknown
Radar Cross SectionMedium (>0.1 m² and <1 m²)

Expand to show TLE details & history

TLE from 8 hours ago
0 OBJECT H
1 61234U 24173H   24356.16782874  .00058933  00000-0  16666-2 0  9991
2 61234  97.3969  68.6717 0008701 332.4804  27.5978 15.36079921 13416
Epoch: 2024-12-21T04:01Z
Definitive object data (Epoch: 2024-12-21T04:01:40.403Z)
Latitude-0.00001°
Longitude-81.96951°
Altitude455.556 km
Speed7.642 km/s
True Right ascension04h 34m 41s
True Declination0° 00' 00"
Sunlit
Object was in full shadow at TLE epoch
Visualization TLE readout
Latitude70.60011°
Longitude-103.13609°
Altitude470.912 km
Speed7.637 km/s
Apparent Right ascension00h 23m 18s
Apparent Declination20° 24' 29"
Sunlit
Object is in full shadow
Visualization observer readout
Local Sidereal Time11:11:08
Azimuth340.924° N
Elevation-27.371°
Doppler factor1
Orbital elements
Apogee altitude460.604 km
Perigee altitude448.714 km
Semi-major axis6,832.796 km
Eccentricity0.0008701
Inclination97.3969°
RAAN68.6717°
Arg. of periapsis332.4804°
True anomaly27.64403°
Mean anomaly27.5978°
Eccentric anomaly27.62091°
Mean motion3.84278 °/min
BSTAR0.0016666
Orbital period93.68 mins
Loading maneuver chart data...
Loading historical data...
Loading historical data...
Loading historical data...
Loading historical data...
Loading historical data...
Loading historical data...
Loading historical data...

OBJECT H Visibility forecast

Observer location: undefined°, undefined

Span
Click to sort rows by Start time (UTC) header in descending order
Start Az.
Max El. time (UTC)
Max El. Az.
Max El.
End time (UTC)
End Az.
4 mins2024-12-21 18:40:23.621Z321.815° NNW2024-12-21 18:41:23.621Z297.742° NW21.008°2024-12-21 18:44:23.621Z236.479° WSW
4 mins2024-12-22 05:11:23.621Z174.118° S2024-12-22 05:13:23.621Z328.049° NNW41.789°2024-12-22 05:15:23.621Z344.617° N
|